Regional Weather Roundup
Issued by NWS

Home | Current Version | Previous Version | Text Only | Print | Product List | Glossary On
Versions: 1 2 3 4 5 6 7 8 9 10 11 12 13 14 15 16 17 18 19 20 21 22 23 24 25 26 27 28 29 30 31 32 33 34 35 36 37 38 39 40 41 42 43 44 45 46 47 48 49 50
000
ASUS43 KMPX 290710
RWRMN
WEATHER ROUNDUP FOR MINNESOTA
NATIONAL WEATHER SERVICE TWIN CITIES/CHANHASSEN MN
200 AM CDT TUE JUL 29 2014


NOTE: "FAIR" INDICATES FEW OR NO CLOUDS BELOW 12,000 FEET WITH NO
SIGNIFICANT WEATHER AND/OR OBSTRUCTIONS TO VISIBILITY. N/A MEANS
CURRENT SKY AND/OR WEATHER CONDITIONS ARE NOT AVAILABLE.

MNZ060>063-068>070-290800-
   Twin Cities Metro

CITY           SKY/WX    TMP DP  RH WIND       PRES   REMARKS
TWIN CITIES    CLEAR     63  56  78 NW7       30.13F
ST PAUL        CLEAR     62  55  77 NW6       30.13S
CRYSTAL        CLEAR     63  55  75 NW6       30.12F
BLAINE         CLEAR     61  57  88 W5        30.13F
LAKEVILLE      CLEAR     59  55  88 W6        30.14F
EDEN PRAIRIE   CLEAR     65  56  72 NW7       30.13S
SOUTH ST PAUL  CLEAR     63  55  76 CALM      30.13S
LAKE ELMO      FAIR      61  55  82 NW3       30.13F
$$
MNZ001>005-007-008-013>017-022>024-027-028-290800-
   Northwest Minnesota

CITY           SKY/WX    TMP DP  RH WIND       PRES   REMARKS
BEMIDJI        CLEAR     53  51  92 NW5       30.16S
HALLOCK        CLEAR     57  55  94 CALM      30.17F
ROSEAU         CLEAR     59  54  82 W5        30.15F
WARROAD        CLEAR     59  55  88 W6        30.15F
THIEF RVR FALL CLEAR     57  55  94 CALM      30.18S
CROOKSTON      CLEAR     55  54  94 CALM      30.18F
FOSSTON        CLEAR     50  46  87 CALM      30.19S
DETROIT LAKES  CLEAR     59  54  82 CALM      30.20S
MOORHEAD       CLEAR     55  55 100 CALM      30.20S
PARK RAPIDS    CLEAR     53  51  93 CALM      30.17F
$$
MNZ006-009>011-018-025>026-290800-
   North Central Minnesota

CITY           SKY/WX    TMP DP  RH WIND       PRES   REMARKS
BAUDETTE       CLEAR     59  56  89 NW6       30.14S
FLAG ISLAND    CLEAR     64  57  77 NW14      30.12S
INTL FALLS     PTCLDY    58  55  90 CALM      30.10F
WASKISH        PTCLDY    63  57  82 NW8       30.14S
BIG FORK       CLEAR     54  52  94 W1        30.13F
LONGVILLE      CLEAR     57  55  94 CALM      30.14F
GRAND RAPIDS   CLEAR     57  54  88 NW3       30.13F
CRANE LAKE     MOCLDY    54  52  94 CALM      30.13F
ORR            CLEAR     52  50  93 CALM      30.10S
COOK           MOCLDY    54  52  94 CALM      30.13R
$$
MNZ012-019>021-037-290800-
   Northeast Minnesota

CITY           SKY/WX    TMP DP  RH WIND       PRES   REMARKS
DULUTH         PTCLDY    59  54  83 NW6       30.10S
ELY            MOCLDY    57  54  88 NW5       30.11S
HIBBING        CLEAR     53  51  93 W3        30.12F
EVELETH        CLEAR     57  52  82 W5        30.12F
DULUTH HARBOR  MOCLDY    66  57  72 NW5       30.09S
TWO HARBORS    PTCLDY    57  50  77 NW5       30.07S
SILVER BAY     MOCLDY    54  54 100 CALM      30.06S
GRAND MARAIS     N/A     64  52  64 NW10G20   30.00F
G MARAIS ARPRT PTCLDY    55  48  76 NW10      30.05F
$$
MNZ029>031-032-039>041-046>048-054>057-064-290800-
   West Central Minnesota

CITY           SKY/WX    TMP DP  RH WIND       PRES   REMARKS
FERGUS FALLS   CLEAR     55  50  82 N5        30.20S
WHEATON        CLEAR     55  52  88 W3        30.22S
MORRIS         CLEAR     52  52 100 NW5       30.19S
ALEXANDRIA     CLEAR     58  54  86 NW3       30.20S
ELBOW LAKE     FAIR      57  53  87 NW3       30.19S
WADENA         CLEAR     54  52  94 W3        30.18S
GLENWOOD       CLEAR     57  54  88 NW5       30.19F
APPLETON       CLEAR     54  52  94 W5        30.19F
BENSON         CLEAR     52  52 100 CALM      30.19F
ORTONVILLE     CLEAR     55  52  88 NW3       30.20S
MADISON        CLEAR     55  52  88 W5        30.20F
WILLMAR        FAIR      57  54  88 CALM      30.20S
$$
MNZ033>034-036-042>043-049>051-058-059-290800-
   Central Minnesota

CITY           SKY/WX    TMP DP  RH WIND       PRES   REMARKS
ST CLOUD       CLEAR     59  54  83 NW5       30.15F
SAUK CENTRE    FAIR      55  52  92 NW3       30.18F
PAYNESVILLE    CLEAR     51  50  99 SW5       30.18F
AITKIN         CLEAR     57  54  88 CALM      30.13S
PINE RIVER     CLEAR     54  52  94 CALM      30.18F
BRAINERD       CLEAR     59  53  80 NW5       30.16F
STAPLES        CLEAR     54  52  94 W3        30.17F
LONG PRAIRIE   FAIR      55  52  88 NW3       30.18F
LITTLE FALLS   CLEAR     52  52 100 CALM      30.16F
LITCHFIELD     CLEAR     63  57  82 NW5       30.18S
BUFFALO        CLEAR     62  54  74 NW6       30.16S
MAPLE LAKE     CLEAR     61  56  85 CALM      30.17S
$$
MNZ037-044-045-052-053-290800-
   East Central Minnesota

CITY           SKY/WX    TMP DP  RH WIND       PRES   REMARKS
PRINCETON      CLEAR     57  55  94 W5        30.14F
MORA           CLEAR     55  54  94 CALM      30.14F
CAMBRIDGE      CLEAR     61  52  72 CALM      30.11F
RUSH CITY      PTCLDY    56  54  90 CALM      30.12F
MOOSE LAKE     PTCLDY    59  54  82 NW6       30.10R
HINCKLEY       CLOUDY    59  55  88 CALM      30.12S
CLOQUET        CLEAR     57  54  88 NW7       30.11S
MCGREGOR       CLEAR     57  54  88 CALM      30.14S
$$
MNZ071>073-080-081-089-090-097-098-290800-
   Southwest Minnesota

CITY           SKY/WX    TMP DP  RH WIND       PRES   REMARKS
MONTEVIDEO     CLEAR     55  54  94 NW6       30.20F
GRANITE FALLS  CLEAR     52  51  95 W5        30.21S
CANBY          CLEAR     55  51  87 W6        30.22S
MARSHALL       CLEAR     54  48  82 W6        30.19F
REDWOOD FALLS  CLEAR     56  53  90 W7        30.18F
OLIVIA         CLEAR     57  54  88 NW6       30.18S
PIPESTONE      CLEAR     54  52  94 CALM      30.22F
WINDOM         CLEAR     54  52  94 W3        30.21S
WORTHINGTON    CLEAR     54  48  82 NW5       30.22F
JACKSON        CLEAR     55  50  82 NW6       30.21S
TRACY          CLEAR     58  52  79 W6        30.21F
SLAYTON        CLEAR     53  51  93 CALM      30.23S
$$
MNZ065>067-074>077-082>085-091>093-290800-
   South Central Minnesota

CITY           SKY/WX    TMP DP  RH WIND       PRES   REMARKS
MANKATO        CLEAR     59  52  77 NW5       30.16S
NEW ULM        CLEAR     57  55  94 W6        30.17F
ST JAMES       CLEAR     57  54  88 W5        30.19S
FAIRMONT       CLEAR     57  48  72 NW7       30.18F
GLENCOE        CLEAR     61  55  79 W6        30.15F
FARIBAULT      CLEAR     63  54  72 NW3       30.15S
OWATONNA       CLEAR     54  52  94 CALM      30.15F
WASECA         CLEAR     52  46  82 CALM      30.17F
ALBERT LEA     CLEAR     59  54  82 CALM      30.16S
$$
MNZ078>079-086>088-094>096-290800-
   Southeast Minnesota

CITY           SKY/WX    TMP DP  RH WIND       PRES   REMARKS
ROCHESTER      CLEAR     56  52  86 W8        30.15S
RED WING       CLEAR     57  55  94 CALM      30.11F
STANTON        CLEAR     58  54  86 S3        30.13S
DODGE CENTER   PTCLDY    61  55  82 NW8       30.14F
WINONA         CLEAR     55  54  94 NW3       30.11F
AUSTIN         CLEAR     57  54  88 NW3       30.15S
PRESTON        CLEAR     56  56 100 NW6       30.14F
$$
ABBREVIATIONS USED IN REMARKS
   TC - TEMPERATURES IN CELSIUS
  WCI - WIND CHILL INDEX
   HX - HEAT INDEX
  VSB - VISIBILITY
$$


USA.gov is the U.S. government's official web portal to all federal, state and local government web resources and services.